| time (UTC) | temp C | wind direction | speed KPH | gust KPH | rain 1hr cm | rain 24hr cm | rain mn cm | humidity % | barometer mb |
| 20260502184553 | 8 | 82 | 1.6 | 9.7 | 0.03 | 0.25 | 0.25 | 81 | 1011.1 |
| 20260502183056 | 7 | 76 | 1.6 | 8.0 | 0.03 | 0.25 | 0.25 | 83 | 1011.3 |
| 20260502181545 | 7 | 173 | 0.0 | 6.4 | 0.03 | 0.25 | 0.25 | 85 | 1011.5 |
| 20260502163043 | 7 | 271 | 1.6 | 11.3 | 0.00 | 0.23 | 0.23 | 85 | 1011.3 |
| 20260502161540 | 7 | 336 | 4.8 | 12.9 | 0.00 | 0.23 | 0.23 | 86 | 1011.3 |
| 20260502151538 | 7 | 330 | 0.0 | 12.9 | 0.00 | 0.23 | 0.23 | 89 | 1011.5 |
| 20260502123020 | 6 | 78 | 0.0 | 1.6 | 0.00 | 0.23 | 0.23 | 92 | 1011.5 |
| 20260502121517 | 6 | 78 | 0.0 | 0.0 | 0.03 | 0.23 | 0.23 | 92 | 1011.5 |
| 20260502114516 | 6 | 78 | 0.0 | 1.6 | 0.03 | 0.23 | 0.23 | 92 | 1011.3 |
| 20260502113016 | 6 | 79 | 0.0 | 1.6 | 0.05 | 0.23 | 0.23 | 92 | 1011.2 |
| 20260502111515 | 6 | 79 | 0.0 | 0.0 | 0.03 | 0.20 | 0.20 | 92 | 1011.3 |
| 20260502110014 | 5 | 79 | 0.0 | 0.0 | 0.03 | 0.20 | 0.20 | 92 | 1011.2 |
| 20260502104520 | 5 | 78 | 0.0 | 0.0 | 0.05 | 0.20 | 0.20 | 91 | 1011.2 |
| 20260502103015 | 5 | 78 | 0.0 | 0.0 | 0.08 | 0.18 | 0.18 | 91 | 1011.0 |
| 20260502101530 | 5 | 78 | 0.0 | 0.0 | 0.08 | 0.18 | 0.18 | 91 | 1010.9 |
| 20260502091510 | 5 | 78 | 0.0 | 0.0 | 0.00 | 0.10 | 0.10 | 91 | 1011.1 |
| 20260502071501 | 6 | 78 | 1.6 | 4.8 | 0.03 | 0.03 | 0.03 | 89 | 1011.0 |
| 20260502070130 | 6 | 81 | 3.2 | 9.7 | 0.00 | 0.00 | 0.00 | 88 | 1011.4 |
| 20260502064600 | 6 | 105 | 3.2 | 9.7 | 0.00 | 0.00 | 0.00 | 88 | 1011.4 |
| 20260502063100 | 6 | 95 | 3.2 | 8.0 | 0.00 | 0.00 | 0.00 | 87 | 1011.4 |
| 20260502061606 | 6 | 286 | 0.0 | 0.0 | 0.00 | 0.00 | 0.00 | 86 | 1011.4 |
| 20260502060057 | 6 | 286 | 0.0 | 0.0 | 0.00 | 0.00 | 0.00 | 86 | 1011.4 |
| 20260502054558 | 6 | 286 | 0.0 | 0.0 | 0.00 | 0.00 | 0.00 | 85 | 1011.5 |
| 20260502053055 | 6 | 286 | 0.0 | 1.6 | 0.00 | 0.00 | 0.00 | 85 | 1011.5 |
| 20260502051620 | 6 | 286 | 0.0 | 0.0 | 0.00 | 0.00 | 0.00 | 84 | 1011.4 |
| 20260502050056 | 6 | 286 | 0.0 | 0.0 | 0.00 | 0.00 | 0.00 | 83 | 1011.7 |
| 20260502044550 | 6 | 286 | 0.0 | 0.0 | 0.00 | 0.00 | 0.00 | 82 | 1011.6 |
| 20260502043052 | 6 | 286 | 0.0 | 0.0 | 0.00 | 0.00 | 0.00 | 82 | 1011.5 |
| 20260502041548 | 6 | 286 | 0.0 | 0.0 | 0.00 | 0.00 | 0.00 | 81 | 1011.5 |
| 20260502040055 | 6 | 286 | 0.0 | 0.0 | 0.00 | 0.00 | 0.00 | 81 | 1011.4 |
| 20260502034546 | 6 | 286 | 0.0 | 1.6 | 0.00 | 0.00 | 0.00 | 81 | 1011.4 |
| 20260502033045 | 6 | 320 | 0.0 | 1.6 | 0.00 | 0.00 | 0.00 | 81 | 1011.4 |
| 20260502031545 | 6 | 320 | 0.0 | 0.0 | 0.00 | 0.00 | 0.00 | 81 | 1011.5 |
| 20260502030045 | 6 | 281 | 0.0 | 1.6 | 0.00 | 0.00 | 0.00 | 79 | 1011.3 |
| 20260502024544 | 6 | 281 | 0.0 | 0.0 | 0.00 | 0.00 | 0.00 | 77 | 1011.2 |
| 20260502023057 | 6 | 281 | 0.0 | 0.0 | 0.00 | 0.00 | 0.00 | 76 | 1011.0 |
| 20260502021543 | 6 | 281 | 0.0 | 1.6 | 0.00 | 0.00 | 0.00 | 76 | 1011.1 |
| 20260502020059 | 6 | 281 | 0.0 | 0.0 | 0.00 | 0.00 | 0.00 | 73 | 1011.1 |
| 20260502014547 | 7 | 281 | 0.0 | 0.0 | 0.00 | 0.00 | 0.00 | 71 | 1011.2 |
| 20260502013057 | 7 | 281 | 0.0 | 0.0 | 0.00 | 0.00 | 0.00 | 70 | 1011.1 |
| 20260502011541 | 7 | 281 | 0.0 | 1.6 | 0.00 | 0.00 | 0.00 | 68 | 1011.1 |
| 20260502010041 | 8 | 281 | 0.0 | 0.0 | 0.00 | 0.03 | 0.00 | 66 | 1010.9 |
| 20260502004544 | 8 | 281 | 0.0 | 0.0 | 0.00 | 0.03 | 0.00 | 64 | 1010.8 |
| 20260502003041 | 9 | 281 | 0.0 | 0.0 | 0.00 | 0.03 | 0.00 | 62 | 1010.6 |
| 20260502001557 | 10 | 281 | 0.0 | 0.0 | 0.00 | 0.03 | 0.00 | 58 | 1010.4 |
| 20260502000039 | 10 | 281 | 0.0 | 0.0 | 0.00 | 0.03 | 0.00 | 55 | 1010.2 |
| 20260501234539 | 11 | 281 | 0.0 | 0.0 | 0.00 | 0.03 | 0.00 | 51 | 1010.0 |
| 20260501233045 | 11 | 281 | 0.0 | 0.0 | 0.00 | 0.03 | 0.00 | 49 | 1009.8 |
| 20260501231538 | 11 | 279 | 0.0 | 0.0 | 0.00 | 0.03 | 0.00 | 47 | 1009.7 |
| 20260501230039 | 12 | 279 | 0.0 | 1.6 | 0.00 | 0.10 | 0.00 | 45 | 1009.4 |
| 20260501224538 | 12 | 205 | 0.0 | 8.0 | 0.00 | 0.10 | 0.00 | 45 | 1009.4 |
| 20260501223037 | 12 | 275 | 4.8 | 11.3 | 0.00 | 0.10 | 0.00 | 43 | 1009.4 |
| 20260501221535 | 12 | 325 | 0.0 | 8.0 | 0.00 | 0.10 | 0.00 | 43 | 1009.3 |
| 20260501220107 | 12 | 252 | 0.0 | 12.9 | 0.00 | 0.30 | 0.00 | 42 | 1009.3 |
| 20260501214538 | 13 | 245 | 6.4 | 12.9 | 0.00 | 0.30 | 0.00 | 39 | 1009.4 |
| 20260501213035 | 13 | 192 | 0.0 | 8.0 | 0.00 | 0.30 | 0.00 | 40 | 1009.2 |
| 20260501211534 | 13 | 167 | 1.6 | 6.4 | 0.00 | 0.30 | 0.00 | 38 | 1009.1 |
| 20260501210044 | 13 | 307 | 3.2 | 12.9 | 0.00 | 0.30 | 0.00 | 41 | 1009.1 |
| 20260501204540 | 13 | 9 | 3.2 | 9.7 | 0.00 | 0.30 | 0.00 | 44 | 1009.2 |
| 20260501203036 | 13 | 259 | 0.0 | 11.3 | 0.00 | 0.30 | 0.00 | 43 | 1009.2 |
| 20260501201539 | 13 | 272 | 1.6 | 6.4 | 0.00 | 0.30 | 0.00 | 41 | 1009.2 |
| 20260501200031 | 12 | 144 | 0.0 | 8.0 | 0.00 | 0.30 | 0.00 | 47 | 1009.3 |
| 20260501194535 | 13 | 290 | 0.0 | 8.0 | 0.00 | 0.30 | 0.00 | 42 | 1009.4 |
| 20260501193038 | 13 | 244 | 1.6 | 11.3 | 0.00 | 0.30 | 0.00 | 45 | 1009.6 |
| 20260501191528 | 13 | 321 | 1.6 | 8.0 | 0.00 | 0.30 | 0.00 | 48 | 1009.5 |
| 20260501190027 | 12 | 332 | 0.0 | 11.3 | 0.00 | 0.33 | 0.00 | 48 | 1009.7 |